This is the latest recevied weather packets stored in our database for station/object WI0K. If no packets are shown the sender has not sent any weather packets the latest 1 day(s).
| Time | Temp. | Humidity | Pressure | Rain* | Wind** | Luminosity | Snow |
|---|---|---|---|---|---|---|---|
| 1778083244 | 1.11° C | 92% | 1019.7 hPa | 0 mm | - | 90 W/m² | - |
| 1778082693 | 1.11° C | 93% | 1019.7 hPa | 0 mm | - | 87 W/m² | - |
| 1778082643 | 1.11° C | 93% | 1019.7 hPa | 0 mm | - | 81 W/m² | - |
| 1778082392 | 1.11° C | 93% | 1019.7 hPa | 0 mm | - | 81 W/m² | - |
| 1778081790 | 1.11° C | 94% | 1019.6 hPa | 0 mm | - | 80 W/m² | - |
| 1778080588 | 0.56° C | 95% | 1019.2 hPa | 0 mm | - | 69 W/m² | - |
| 1778079686 | 0° C | 96% | 1019.1 hPa | 0 mm | - | 56 W/m² | - |
| 1778078784 | 0° C | 97% | 1019 hPa | 0 mm | - | 52 W/m² | - |
| 1778078183 | 0° C | 97% | 1018.9 hPa | 0 mm | - | 41 W/m² | - |
| 1778077826 | 0° C | 98% | 1019 hPa | 0 mm | - | 25 W/m² | - |
| 1778077225 | 0° C | 98% | 1018.8 hPa | 0 mm | - | 24 W/m² | - |
| 1778075778 | 0° C | 98% | 1018.9 hPa | 0 mm | - | 24 W/m² | - |
| 1778075477 | 0° C | 98% | 1018.9 hPa | 0 mm | - | 16 W/m² | - |
| 1778075122 | 0° C | 98% | 1018.8 hPa | 0 mm | - | 15 W/m² | - |
| 1778074876 | 0° C | 98% | 1018.8 hPa | 0 mm | - | 15 W/m² | - |
| 1778073974 | 0° C | 97% | 1018.5 hPa | 0 mm | - | 18 W/m² | - |
| 1778073072 | 0° C | 98% | 1018.1 hPa | 0 mm | - | 36 W/m² | - |
| 1778072170 | 0° C | 99% | 1017.8 hPa | 0 mm | - | 26 W/m² | - |
| 1778071569 | -0.56° C | 99% | 1017.7 hPa | 0 mm | - | 12 W/m² | - |
| 1778070667 | -0.56° C | 100% | 1017.9 hPa | 0 mm | - | 3 W/m² | - |
| 1778070366 | -0.56° C | 100% | 1017.8 hPa | 0 mm | - | 1 W/m² | - |
| 1778069464 | -0.56° C | 100% | 1017.6 hPa | 0 mm | - | 1 W/m² | - |
| 1778067961 | -0.56° C | 100% | 1017.6 hPa | 0 mm | - | 0 W/m² | - |
| 1778067881 | -0.56° C | 100% | 1017.6 hPa | 0 mm | - | 0 W/m² | - |
| 1778067606 | -0.56° C | 100% | 1017.4 hPa | 0 mm | - | 0 W/m² | - |
* Rain latest hour (hover to see other rain measurements)
** Current wind speed in m/s (hover to see current wind gust speed)